CAPE
1 1 0 0 16 29 35 48 58 39 29 29 40 61 60 59 81 27 1 25 33 17 0 0 0 0 0 0 0 0 13 1 0 17 136 3 0 18 38 36 0 0 0 0 35 18 13 25 42 0 31 655 194 62
0 0 1 1 12 11 12 29 39 56 46 40 33 29 45 42 37 24 7 1 23 33 0 0 0 0 0 0 0 0 0 0 0 2 6 33 8 67 48 68 81 11 75 0 42 4 381 61 1059 715 1260 1272 1162 910
0 0 0 0 0 0 0 10 14 25 24 20 32 50 53 74 70 50 14 1 10 0 0 0 0 0 0 0 0 0 0 1 0 0 0 0 24 115 31 154 139 154 114 143 3 39 810 259 1146 874 1041 1013 969 861
0 0 0 0 0 0 0 0 5 9 21 17 29 27 34 58 74 47 26 0 0 0 0 0 0 0 0 0 0 0 9 3 0 0 0 0 0 4 51 91 55 164 83 120 118 6 378 618 524 614 628 631 618 1036
0 0 0 0 0 0 0 0 0 0 3 8 21 27 30 26 47 12 0 0 0 0 0 0 0 0 1 39 24 1 0 0 0 0 0 1 0 59 91 100 161 91 165 176 81 70 115 340 439 387 285 104 212 383
0 0 0 0 0 0 0 0 0 0 0 0 0 0 16 17 40 0 0 0 0 0 0 0 0 24 34 37 59 47 0 0 0 0 0 0 0 8 46 82 71 71 253 215 113 114 125 75 17 95 137 328 100 129
0 0 0 0 0 0 0 0 0 0 0 0 0 0 0 3 0 5 0 0 0 1 0 0 0 5 48 81 18 0 0 0 0 0 0 0 8 3 38 8 0 98 142 322 179 48 40 29 51 15 34 34 39 51
0 0 0 0 0 0 0 0 0 0 0 0 0 0 0 1 0 0 2 2 6 0 0 0 0 0 17 57 3 26 0 0 50 29 0 1 3 0 14 11 25 21 84 78 76 92 47 31 43 22 23 26 55 43
0 0 0 0 0 0 0 0 0 0 0 0 0 0 0 0 0 0 0 0 0 0 0 0 0 0 0 0 1 0 0 0 0 0 0 0 0 1 41 0 0 11 18 34 59 67 54 38 9 22 5 7 47 43
0 0 0 0 0 0 0 0 0 0 0 0 0 0 0 0 0 0 0 0 0 0 0 0 0 0 0 0 0 0 0 0 0 0 0 0 0 0 28 0 0 0 17 2 5 23 12 32 4 0 0 0 0 0
0 0 0 0 0 0 0 0 0 0 0 0 0 0 0 0 0 0 0 0 0 0 0 0 0 0 0 0 0 0 0 0 0 0 1 0 0 0 0 0 0 0 1 0 0 8 7 3 0 9 18 0 3 12
0 0 0 0 0 0 0 0 0 0 0 0 0 0 0 0 0 0 2 0 1 0 0 0 0 0 0 0 0 0 0 0 0 0 0 0 0 0 0 0 0 0 0 0 0 0 0 0 3 6 2 7 43 17
0 0 0 0 0 0 0 0 0 0 0 0 0 0 0 0 1 25 10 3 5 7 0 0 0 0 0 0 4 0 0 0 0 0 0 0 0 0 0 0 0 0 0 0 0 0 65 34 56 29 29 28 11 41
0 0 0 0 0 0 0 0 0 0 0 0 0 0 3 0 0 0 0 0 9 26 0 0 0 0 0 0 0 0 0 0 0 0 0 0 0 0 0 0 0 0 0 2 73 27 39 67 46 46 33 38 55 44
0 0 0 0 0 0 0 0 1 0 0 0 0 14 7 40 43 27 0 0 0 0 2 0 0 0 0 0 0 0 0 0 0 0 0 0 0 3 14 53 14 0 44 68 54 72 53 11 22 23 34 11 25 21
0 0 0 0 0 0 0 0 3 1 16 3 11 0 4 1 11 0 0 0 0 0 0 0 0 0 0 0 0 0 0 0 0 0 0 0 4 26 44 51 39 29 6 3 5 2 2 4 4 7 16 22 22 12
0 0 0 0 0 0 0 0 1 40 15 32 41 35 43 7 1 0 0 0 0 0 0 0 0 0 0 0 0 0 0 0 0 0 0 0 18 23 10 1 5 12 19 11 2 0 0 0 2 2 0 2 18 10
0 0 0 0 0 0 0 0 0 4 20 19 28 28 3 1 0 0 0 0 0 0 0 0 0 0 0 0 0 0 2 0 4 4 25 24 30 43 66 46 8 14 14 10 11 8 6 3 0 0 1 8 0 10
0 0 0 0 0 0 0 0 0 14 18 14 5 0 0 0 0 0 0 0 0 0 0 0 0 0 0 10 0 6 5 8 26 24 40 52 48 28 6 1 0 0 0 0 0 0 0 0 0 0 0 0 0 0
0 0 0 0 0 0 0 0 1 6 14 28 19 0 0 0 0 0 0 0 0 0 0 0 0 4 10 5 15 17 9 32 12 9 14 17 26 32 12 1 0 0 0 0 0 0 0 0 0 0 0 0 0 0
0 0 0 1 7 0 0 0 0 1 13 25 28 2 0 0 0 0 0 0 0 0 0 3 0 2 4 8 18 2 0 0 7 12 3 10 0 2 0 0 0 0 0 0 0 0 0 0 0 0 0 0 0 0
0 0 0 4 24 5 0 29 17 52 10 16 16 3 0 0 0 0 1 0 0 20 29 14 0 0 0 0 0 0 0 0 0 0 2 4 2 4 8 3 2 0 0 0 0 0 0 0 0 0 0 0 0 0
0 0 12 34 33 6 40 153 149 118 34 9 11 14 13 6 7 3 0 0 0 0 0 0 0 0 0 0 0 0 0 0 0 0 0 0 0 0 1 7 13 14 7 6 10 11 3 0 0 0 0 0 0 0
0 0 1 31 198 114 248 170 218 185 131 3 5 0 21 26 19 0 0 0 7 5 1 11 5 0 0 0 0 0 0 0 0 0 0 0 0 0 0 0 0 0 4 20 13 8 1 0 0 0 0 0 0 0
0 2 51 78 81 12 166 130 99 101 73 13 1 9 12 20 0 6 20 24 29 10 20 30 20 0 0 0 0 0 0 0 0 0 0 0 0 0 0 0 0 0 0 0 0 0 0 0 0 0 0 0 0 0
108 11 10 0 0 0 29 40 99 165 102 92 59 41 23 14 0 0 4 22 23 42 36 54 0 0 0 0 0 0 0 0 0 0 0 0 0 0 0 0 0 0 0 0 0 0 0 0 0 0 0 0 0 0
0 0 0 0 0 0 3 31 104 6 0 6 52 53 0 2 0 0 4 33 36 46 19 0 3 0 0 0 0 0 0 0 0 0 0 0 0 0 0 0 0 0 0 0 0 0 0 0 0 0 0 0 0 0
0 5 12 70 25 100 81 0 0 0 0 0 0 0 0 0 0 0 16 30 56 81 5 0 1 0 0 0 0 0 0 0 0 0 0 0 0 0 0 0 0 0 0 0 0 0 0 0 0 0 0 0 0 0
57 6 32 55 13 46 16 0 0 0 0 0 0 0 0 0 0 0 9 2 0 0 0 0 0 0 0 0 0 0 0 0 0 0 0 0 0 0 0 0 0 0 0 0 0 0 0 0 0 0 0 0 0 0
125 34 85 163 25 12 0 4 1 0 0 0 0 0 0 0 0 8 1 0 0 0 1 0 0 0 0 0 0 0 0 0 0 0 0 0 0 0 0 0 0 0 0 0 0 0 0 0 0 0 0 0 0 0
57 57 130 118 100 58 51 94 93 41 1 0 0 0 0 0 0 0 0 0 0 0 0 0 0 0 0 0 0 0 0 0 0 0 0 0 0 0 0 0 0 0 0 0 0 0 0 0 0 0 0 0 0 0
94 7 23 225 116 67 62 127 95 19 7 4 0 0 0 0 0 5 0 0 0 0 0 0 0 0 0 0 0 0 0 0 0 0 0 0 0 0 0 0 0 0 0 0 0 0 0 0 0 0 0 0 0 0
12 30 71 213 160 232 241 194 162 63 22 26 12 13 7 0 0 0 0 0 0 0 0 0 0 0 0 0 0 0 0 0 0 0 0 0 0 0 0 0 0 0 0 0 0 0 0 0 0 0 0 0 0 0
CIN
0 0 0 0 0 0 0 0 0 0 0 0 0 0 0 0 0 -1 -15 -12 -2 -1 0 0 0 0 0 0 0 0 -3 -1 0 0 -6 -74 0 -23 -4 -25 0 0 0 0 -4 0 -3 -73 -87 -6 -98 -218 -78 -96
0 0 0 0 0 0 0 0 0 0 0 0 0 0 0 0 0 0 0 -3 -5 0 0 0 0 0 0 0 0 0 0 0 0 -6 -2 -9 -4 -6 -16 -5 -23 -1 -33 0 -86 -12 -53 -127 -116 -272 -235 -227 -219 -249
0 0 0 0 0 0 0 0 -2 -1 -2 0 0 0 0 0 0 0 0 -5 -4 0 0 0 0 0 0 0 0 -1 -6 -15 0 0 0 0 -3 -1 -7 -12 0 -20 -64 -102 -122 -39 0 -144 -31 -102 -91 -140 -165 -220
0 0 0 0 0 0 0 0 -8 -6 0 0 0 0 0 0 0 -1 0 0 0 0 0 0 0 0 0 0 0 0 -8 -1 0 0 0 0 0 -42 -11 0 -6 -16 -33 -44 -131 -23 -13 -20 -67 -85 -64 -47 -56 -125
0 0 0 0 0 0 0 0 0 0 0 0 0 0 0 0 0 -1 0 0 0 0 0 0 0 0 -4 -6 -11 -16 0 0 0 0 -1 -3 0 -7 -4 -5 0 -3 -29 -31 -41 -23 -33 -20 -20 -71 -90 -35 -27 -151
0 0 0 0 0 0 0 0 0 0 0 0 0 0 0 0 0 0 0 0 0 0 0 0 0 -16 -18 -25 -39 -21 0 0 0 0 0 0 0 -106 -9 -15 -27 -1 -1 -17 -23 -4 -31 -133 -116 -91 -111 -91 -176 -153
0 0 0 0 0 0 0 0 0 0 0 0 0 0 0 0 0 0 0 0 0 0 0 0 0 -19 -12 -52 -23 0 0 0 0 0 0 0 -3 -1 -12 -65 -4 0 0 0 -8 -1 -15 -145 -59 -89 -95 -92 -90 -64
0 0 0 0 0 0 0 0 0 0 0 0 0 0 0 0 0 0 0 0 0 0 0 0 0 0 -69 -27 -6 -14 0 0 -9 -16 0 -7 0 -7 -7 -38 -5 -2 -1 0 -4 -3 0 -4 -2 -16 -49 -35 -22 -12
0 0 0 0 0 0 0 0 0 0 0 0 0 0 0 0 0 0 0 0 0 0 0 0 0 0 0 0 -1 0 0 0 0 0 0 0 0 -3 0 -7 -15 -86 -1 -1 -1 -23 -30 -1 -4 -8 -33 -25 -9 -8
0 0 0 0 0 0 0 0 0 0 0 0 0 0 0 0 0 0 0 0 0 0 0 0 0 0 0 0 0 0 0 0 0 0 0 0 0 0 0 0 0 0 -4 0 0 -2 0 -39 0 0 0 0 0 0
0 0 0 0 0 0 0 0 0 0 0 0 0 0 0 0 0 0 0 0 0 0 0 0 0 0 0 0 0 0 0 0 0 0 0 0 0 0 0 0 0 0 0 0 0 0 0 0 0 -15 -8 -1 -1 -4
0 0 0 0 0 0 0 0 0 0 0 0 0 0 0 0 0 0 -1 0 -2 0 0 0 0 0 0 0 0 0 0 0 0 0 0 0 0 0 0 0 0 0 0 0 0 0 0 0 0 0 -1 -6 0 -5
0 0 0 0 0 0 0 0 0 0 0 0 0 0 0 0 0 -6 -2 -1 -1 -1 0 0 0 0 0 0 -1 0 0 0 0 0 0 0 0 0 0 0 0 0 0 0 0 0 -6 -5 -13 -9 -11 -9 -2 -12
0 0 0 0 0 0 0 0 0 0 0 0 0 0 -7 0 0 0 0 0 -5 0 0 0 0 0 0 0 0 0 0 0 0 0 0 0 0 0 0 0 0 0 0 -5 -27 -38 -20 -11 -20 -17 -6 -15 -3 -29
0 0 0 0 0 0 0 0 -41 0 -8 0 0 -4 -1 -1 -7 -1 0 0 0 0 -22 0 0 0 0 0 0 0 0 0 0 0 -2 0 0 -1 -2 -39 -28 0 -4 -14 -18 -14 -22 -4 -15 -22 -1 -1 0 -2
0 0 0 0 0 0 0 0 -108 -31 -38 -4 0 0 -1 -2 -8 -1 0 0 0 0 0 0 0 0 0 0 0 0 0 0 0 0 0 -1 -1 -9 -5 -63 -83 -2 -6 -6 -6 -32 -55 -2 0 0 -4 -2 -8 0
0 0 0 0 0 0 0 0 -81 -108 0 0 -2 -11 -13 -22 0 0 0 0 0 0 0 0 0 0 0 0 0 0 0 0 0 0 0 0 -6 -10 0 -21 -3 0 0 0 0 0 0 -1 -11 -9 -2 -5 -1 -1
0 0 0 0 0 0 0 0 0 -2 -1 -1 -2 -8 -12 -48 0 0 0 0 0 0 0 0 0 0 0 0 0 0 0 0 -2 -1 -9 -12 -22 -11 -37 -70 0 0 -1 -3 -2 -2 -2 -2 0 0 -2 -1 0 0
0 0 0 0 0 0 0 0 0 -5 -1 -3 -17 0 0 0 0 0 0 0 0 0 0 0 0 0 0 -1 0 -1 0 -13 -6 -16 -17 -40 -51 -55 -5 -11 0 0 0 0 0 0 0 0 0 0 0 0 0 0
0 0 0 0 0 0 0 0 -7 -2 0 -7 -29 0 0 0 0 0 0 0 0 0 0 0 0 -1 0 -1 0 -2 -2 -78 -29 0 0 -2 -14 -19 -10 -3 0 0 0 0 0 0 0 0 0 0 0 0 0 0
0 0 0 -18 -161 0 0 0 0 -3 -4 -6 -15 -27 0 0 0 0 0 0 0 0 0 -11 0 0 0 0 0 -4 0 0 -1 -2 -1 -3 -1 -1 0 0 0 0 0 0 0 0 0 0 0 0 0 0 0 0
0 0 0 -28 -101 -115 0 -60 -31 -28 -16 -6 -15 -9 0 0 0 0 -12 0 0 -19 -35 -22 0 0 0 0 0 0 0 0 0 0 0 -2 -2 0 -1 -5 -1 -1 0 0 0 0 0 0 0 0 0 0 0 0
0 0 -148 -103 -92 -56 -13 -64 -39 -35 -12 -4 -11 -4 -5 -5 -3 -5 0 0 0 0 0 0 0 0 0 0 0 0 0 0 0 0 0 0 0 0 -1 -1 -2 -1 -1 -2 -2 -4 -1 0 0 0 0 0 0 0
0 0 -44 -135 -53 -19 -33 -25 -32 -25 -5 -55 0 0 -9 -6 -6 0 0 0 0 -3 -3 -27 -22 0 0 0 0 0 0 0 0 0 0 0 0 0 0 0 0 0 -1 0 -1 -1 -1 0 0 0 0 0 0 0
0 -4 -101 -19 -20 -19 -16 -8 -19 -10 -11 -45 0 -7 -4 -3 -2 -2 -7 -4 -8 -11 -12 -7 -15 0 0 0 0 0 0 0 0 0 0 0 0 0 0 0 0 0 0 0 0 0 0 0 0 0 0 0 0 0
-52 -30 -39 0 0 0 -82 -21 -19 -18 -12 -8 -13 -6 -1 -3 0 0 -3 -3 -12 -5 -3 -3 0 0 0 0 0 0 0 0 0 0 0 0 0 0 0 0 0 0 0 0 0 0 0 0 0 0 0 0 0 0
0 0 0 0 0 0 -53 -25 -23 -2 0 -1 -17 -12 0 -3 0 0 -6 -12 -10 -6 -19 -10 0 0 0 0 0 0 0 0 0 0 0 0 0 0 0 0 0 0 0 0 0 0 0 0 0 0 0 0 0 0
0 -31 -52 -100 -93 -111 -34 0 0 0 0 -10 -3 0 0 0 0 0 -14 -5 -6 -5 -18 0 -1 0 0 0 0 0 0 0 0 0 0 0 0 0 0 0 0 0 0 0 0 0 0 0 0 0 0 0 0 0
-51 -61 -30 -79 -76 -53 -38 0 0 0 0 0 0 0 0 0 0 0 -3 -12 0 0 0 0 0 0 0 0 0 0 0 0 0 0 0 0 0 0 0 0 0 0 0 0 0 0 0 0 0 0 0 0 0 0
-61 -62 -40 -32 -10 -52 -1 -21 -7 0 0 0 0 0 0 0 0 -9 -4 0 0 0 -1 0 0 0 0 0 0 0 0 0 0 0 0 0 0 0 0 0 0 0 0 0 0 0 0 0 0 0 0 0 0 0
-22 -27 -27 -25 -12 -33 -41 -29 -25 -37 -41 0 0 0 0 0 0 0 0 0 0 0 0 0 0 0 0 0 0 0 0 0 0 0 0 0 0 0 0 0 0 0 0 0 0 0 0 0 0 0 0 0 0 0
-14 -12 -18 -22 -34 -14 -14 -9 -9 -14 -5 -1 0 0 0 0 0 -7 0 0 0 0 0 0 0 0 0 0 0 0 0 0 0 0 0 0 0 0 0 0 0 0 0 0 0 0 0 0 0 0 0 0 0 0
-14 -10 -13 -31 -44 -52 -53 -25 -16 -23 -18 -17 -11 -6 -13 0 0 0 0 0 0 0 0 0 0 0 0 0 0 0 0 0 0 0 0 0 0 0 0 0 0 0 0 0 0 0 0 0 0 0 0 0 0 0
Wind_Speed
nan nan nan nan nan nan nan nan nan nan nan nan nan nan nan nan nan nan nan nan nan nan nan nan nan nan nan nan nan nan nan nan nan nan 18 nan nan nan nan nan nan nan nan nan nan nan nan nan nan nan nan 56 58 nan
nan nan nan nan nan nan nan nan nan nan nan nan nan nan nan nan nan nan nan nan nan nan nan nan nan nan nan nan nan nan nan nan nan nan nan nan nan nan nan nan nan nan nan nan nan nan 58 nan 51 56 62 61 59 63
nan nan nan nan nan nan nan nan nan nan nan nan nan nan nan nan nan nan nan nan nan nan nan nan nan nan nan nan nan nan nan nan nan nan nan nan nan 11 nan 43 57 43 68 69 nan nan 56 78 83 64 65 74 72 73
nan nan nan nan nan nan nan nan nan nan nan nan nan nan nan nan nan nan nan nan nan nan nan nan nan nan nan nan nan nan nan nan nan nan nan nan nan nan nan nan nan 43 nan 60 63 nan 69 81 73 74 72 69 80 79
nan nan nan nan nan nan nan nan nan nan nan nan nan nan nan nan nan nan nan nan nan nan nan nan nan nan nan nan nan nan nan nan nan nan nan nan nan nan nan 22 27 nan 31 53 nan nan 59 65 70 78 76 77 77 72
nan nan nan nan nan nan nan nan nan nan nan nan nan nan nan nan nan nan nan nan nan nan nan nan nan nan nan nan nan nan nan nan nan nan nan nan nan nan nan nan nan nan 43 41 64 52 43 nan nan nan 65 64 61 61
nan nan nan nan nan nan nan nan nan nan nan nan nan nan nan nan nan nan nan nan nan nan nan nan nan nan nan nan nan nan nan nan nan nan nan nan nan nan nan nan nan nan 47 50 57 nan nan nan nan nan nan nan nan nan
nan nan nan nan nan nan nan nan nan nan nan nan nan nan nan nan nan nan nan nan nan nan nan nan nan nan nan nan nan nan nan nan nan nan nan nan nan nan nan nan nan nan nan nan nan nan nan nan nan nan nan nan nan nan
nan nan nan nan nan nan nan nan nan nan nan nan nan nan nan nan nan nan nan nan nan nan nan nan nan nan nan nan nan nan nan nan nan nan nan nan nan nan nan nan nan nan nan nan nan nan nan nan nan nan nan nan nan nan
nan nan nan nan nan nan nan nan nan nan nan nan nan nan nan nan nan nan nan nan nan nan nan nan nan nan nan nan nan nan nan nan nan nan nan nan nan nan nan nan nan nan nan nan nan nan nan nan nan nan nan nan nan nan
nan nan nan nan nan nan nan nan nan nan nan nan nan nan nan nan nan nan nan nan nan nan nan nan nan nan nan nan nan nan nan nan nan nan nan nan nan nan nan nan nan nan nan nan nan nan nan nan nan nan nan nan nan nan
nan nan nan nan nan nan nan nan nan nan nan nan nan nan nan nan nan nan nan nan nan nan nan nan nan nan nan nan nan nan nan nan nan nan nan nan nan nan nan nan nan nan nan nan nan nan nan nan nan nan nan nan nan nan
nan nan nan nan nan nan nan nan nan nan nan nan nan nan nan nan nan nan nan nan nan nan nan nan nan nan nan nan nan nan nan nan nan nan nan nan nan nan nan nan nan nan nan nan nan nan nan nan nan nan nan nan nan nan
nan nan nan nan nan nan nan nan nan nan nan nan nan nan nan nan nan nan nan nan nan nan nan nan nan nan nan nan nan nan nan nan nan nan nan nan nan nan nan nan nan nan nan nan nan nan nan nan nan nan nan nan nan nan
nan nan nan nan nan nan nan nan nan nan nan nan nan nan nan nan nan nan nan nan nan nan nan nan nan nan nan nan nan nan nan nan nan nan nan nan nan nan nan nan nan nan nan nan nan nan nan nan nan nan nan nan nan nan
nan nan nan nan nan nan nan nan nan nan nan nan nan nan nan nan nan nan nan nan nan nan nan nan nan nan nan nan nan nan nan nan nan nan nan nan nan nan nan nan nan nan nan nan nan nan nan nan nan nan nan nan nan nan
nan nan nan nan nan nan nan nan nan nan nan nan nan nan nan nan nan nan nan nan nan nan nan nan nan nan nan nan nan nan nan nan nan nan nan nan nan nan nan nan nan nan nan nan nan nan nan nan nan nan nan nan nan nan
nan nan nan nan nan nan nan nan nan nan nan nan nan nan nan nan nan nan nan nan nan nan nan nan nan nan nan nan nan nan nan nan nan nan nan nan nan nan nan nan nan nan nan nan nan nan nan nan nan nan nan nan nan nan
nan nan nan nan nan nan nan nan nan nan nan nan nan nan nan nan nan nan nan nan nan nan nan nan nan nan nan nan nan nan nan nan nan nan nan nan nan nan nan nan nan nan nan nan nan nan nan nan nan nan nan nan nan nan
nan nan nan nan nan nan nan nan nan nan nan nan nan nan nan nan nan nan nan nan nan nan nan nan nan nan nan nan nan nan nan nan nan nan nan nan nan nan nan nan nan nan nan nan nan nan nan nan nan nan nan nan nan nan
nan nan nan nan nan nan nan nan nan nan nan nan nan nan nan nan nan nan nan nan nan nan nan nan nan nan nan nan nan nan nan nan nan nan nan nan nan nan nan nan nan nan nan nan nan nan nan nan nan nan nan nan nan nan
nan nan nan nan nan nan nan nan nan nan nan nan nan nan nan nan nan nan nan nan nan nan nan nan nan nan nan nan nan nan nan nan nan nan nan nan nan nan nan nan nan nan nan nan nan nan nan nan nan nan nan nan nan nan
nan nan nan nan nan nan nan 16 17 18 nan nan nan nan nan nan nan nan nan nan nan nan nan nan nan nan nan nan nan nan nan nan nan nan nan nan nan nan nan nan nan nan nan nan nan nan nan nan nan nan nan nan nan nan
nan nan nan nan 10 11 9 10 16 15 14 nan nan nan nan nan nan nan nan nan nan nan nan nan nan nan nan nan nan nan nan nan nan nan nan nan nan nan nan nan nan nan nan nan nan nan nan nan nan nan nan nan nan nan
nan nan nan nan nan nan 7 8 nan 13 nan nan nan nan nan nan nan nan nan nan nan nan nan nan nan nan nan nan nan nan nan nan nan nan nan nan nan nan nan nan nan nan nan nan nan nan nan nan nan nan nan nan nan nan
10 nan nan nan nan nan nan nan nan 17 20 nan nan nan nan nan nan nan nan nan nan nan nan nan nan nan nan nan nan nan nan nan nan nan nan nan nan nan nan nan nan nan nan nan nan nan nan nan nan nan nan nan nan nan
nan nan nan nan nan nan nan nan 22 nan nan nan nan nan nan nan nan nan nan nan nan nan nan nan nan nan nan nan nan nan nan nan nan nan nan nan nan nan nan nan nan nan nan nan nan nan nan nan nan nan nan nan nan nan
nan nan nan nan nan 18 nan nan nan nan nan nan nan nan nan nan nan nan nan nan nan nan nan nan nan nan nan nan nan nan nan nan nan nan nan nan nan nan nan nan nan nan nan nan nan nan nan nan nan nan nan nan nan nan
nan nan nan nan nan nan nan nan nan nan nan nan nan nan nan nan nan nan nan nan nan nan nan nan nan nan nan nan nan nan nan nan nan nan nan nan nan nan nan nan nan nan nan nan nan nan nan nan nan nan nan nan nan nan
13 nan nan 21 nan nan nan nan nan nan nan nan nan nan nan nan nan nan nan nan nan nan nan nan nan nan nan nan nan nan nan nan nan nan nan nan nan nan nan nan nan nan nan nan nan nan nan nan nan nan nan nan nan nan
nan nan 16 16 13 nan nan nan nan nan nan nan nan nan nan nan nan nan nan nan nan nan nan nan nan nan nan nan nan nan nan nan nan nan nan nan nan nan nan nan nan nan nan nan nan nan nan nan nan nan nan nan nan nan
nan nan nan 20 19 nan nan 24 nan nan nan nan nan nan nan nan nan nan nan nan nan nan nan nan nan nan nan nan nan nan nan nan nan nan nan nan nan nan nan nan nan nan nan nan nan nan nan nan nan nan nan nan nan nan
nan nan nan 20 19 24 25 27 28 nan nan nan nan nan nan nan nan nan nan nan nan nan nan nan nan nan nan nan nan nan nan nan nan nan nan nan nan nan nan nan nan nan nan nan nan nan nan nan nan nan nan nan nan nan
Wind_Direction
nan nan nan nan nan nan nan nan nan nan nan nan nan nan nan nan nan nan nan nan nan nan nan nan nan nan nan nan nan nan nan nan nan nan 198 nan nan nan nan nan nan nan nan nan nan nan nan nan nan nan nan 217 221 nan
nan nan nan nan nan nan nan nan nan nan nan nan nan nan nan nan nan nan nan nan nan nan nan nan nan nan nan nan nan nan nan nan nan nan nan nan nan nan nan nan nan nan nan nan nan nan 187 nan 209 216 222 222 223 229
nan nan nan nan nan nan nan nan nan nan nan nan nan nan nan nan nan nan nan nan nan nan nan nan nan nan nan nan nan nan nan nan nan nan nan nan nan 210 nan 207 224 226 212 205 nan nan 185 207 211 212 216 224 223 230
nan nan nan nan nan nan nan nan nan nan nan nan nan nan nan nan nan nan nan nan nan nan nan nan nan nan nan nan nan nan nan nan nan nan nan nan nan nan nan nan nan 220 nan 205 196 nan 192 204 210 220 224 224 226 229
nan nan nan nan nan nan nan nan nan nan nan nan nan nan nan nan nan nan nan nan nan nan nan nan nan nan nan nan nan nan nan nan nan nan nan nan nan nan nan 188 206 nan 196 207 nan nan 200 210 212 223 226 225 224 228
nan nan nan nan nan nan nan nan nan nan nan nan nan nan nan nan nan nan nan nan nan nan nan nan nan nan nan nan nan nan nan nan nan nan nan nan nan nan nan nan nan nan 209 201 206 217 193 nan nan nan 226 226 231 237
nan nan nan nan nan nan nan nan nan nan nan nan nan nan nan nan nan nan nan nan nan nan nan nan nan nan nan nan nan nan nan nan nan nan nan nan nan nan nan nan nan nan 200 210 206 nan nan nan nan nan nan nan nan nan
nan nan nan nan nan nan nan nan nan nan nan nan nan nan nan nan nan nan nan nan nan nan nan nan nan nan nan nan nan nan nan nan nan nan nan nan nan nan nan nan nan nan nan nan nan nan nan nan nan nan nan nan nan nan
nan nan nan nan nan nan nan nan nan nan nan nan nan nan nan nan nan nan nan nan nan nan nan nan nan nan nan nan nan nan nan nan nan nan nan nan nan nan nan nan nan nan nan nan nan nan nan nan nan nan nan nan nan nan
nan nan nan nan nan nan nan nan nan nan nan nan nan nan nan nan nan nan nan nan nan nan nan nan nan nan nan nan nan nan nan nan nan nan nan nan nan nan nan nan nan nan nan nan nan nan nan nan nan nan nan nan nan nan
nan nan nan nan nan nan nan nan nan nan nan nan nan nan nan nan nan nan nan nan nan nan nan nan nan nan nan nan nan nan nan nan nan nan nan nan nan nan nan nan nan nan nan nan nan nan nan nan nan nan nan nan nan nan
nan nan nan nan nan nan nan nan nan nan nan nan nan nan nan nan nan nan nan nan nan nan nan nan nan nan nan nan nan nan nan nan nan nan nan nan nan nan nan nan nan nan nan nan nan nan nan nan nan nan nan nan nan nan
nan nan nan nan nan nan nan nan nan nan nan nan nan nan nan nan nan nan nan nan nan nan nan nan nan nan nan nan nan nan nan nan nan nan nan nan nan nan nan nan nan nan nan nan nan nan nan nan nan nan nan nan nan nan
nan nan nan nan nan nan nan nan nan nan nan nan nan nan nan nan nan nan nan nan nan nan nan nan nan nan nan nan nan nan nan nan nan nan nan nan nan nan nan nan nan nan nan nan nan nan nan nan nan nan nan nan nan nan
nan nan nan nan nan nan nan nan nan nan nan nan nan nan nan nan nan nan nan nan nan nan nan nan nan nan nan nan nan nan nan nan nan nan nan nan nan nan nan nan nan nan nan nan nan nan nan nan nan nan nan nan nan nan
nan nan nan nan nan nan nan nan nan nan nan nan nan nan nan nan nan nan nan nan nan nan nan nan nan nan nan nan nan nan nan nan nan nan nan nan nan nan nan nan nan nan nan nan nan nan nan nan nan nan nan nan nan nan
nan nan nan nan nan nan nan nan nan nan nan nan nan nan nan nan nan nan nan nan nan nan nan nan nan nan nan nan nan nan nan nan nan nan nan nan nan nan nan nan nan nan nan nan nan nan nan nan nan nan nan nan nan nan
nan nan nan nan nan nan nan nan nan nan nan nan nan nan nan nan nan nan nan nan nan nan nan nan nan nan nan nan nan nan nan nan nan nan nan nan nan nan nan nan nan nan nan nan nan nan nan nan nan nan nan nan nan nan
nan nan nan nan nan nan nan nan nan nan nan nan nan nan nan nan nan nan nan nan nan nan nan nan nan nan nan nan nan nan nan nan nan nan nan nan nan nan nan nan nan nan nan nan nan nan nan nan nan nan nan nan nan nan
nan nan nan nan nan nan nan nan nan nan nan nan nan nan nan nan nan nan nan nan nan nan nan nan nan nan nan nan nan nan nan nan nan nan nan nan nan nan nan nan nan nan nan nan nan nan nan nan nan nan nan nan nan nan
nan nan nan nan nan nan nan nan nan nan nan nan nan nan nan nan nan nan nan nan nan nan nan nan nan nan nan nan nan nan nan nan nan nan nan nan nan nan nan nan nan nan nan nan nan nan nan nan nan nan nan nan nan nan
nan nan nan nan nan nan nan nan nan nan nan nan nan nan nan nan nan nan nan nan nan nan nan nan nan nan nan nan nan nan nan nan nan nan nan nan nan nan nan nan nan nan nan nan nan nan nan nan nan nan nan nan nan nan
nan nan nan nan nan nan nan 39 42 37 nan nan nan nan nan nan nan nan nan nan nan nan nan nan nan nan nan nan nan nan nan nan nan nan nan nan nan nan nan nan nan nan nan nan nan nan nan nan nan nan nan nan nan nan
nan nan nan nan 354 39 35 30 24 19 4 nan nan nan nan nan nan nan nan nan nan nan nan nan nan nan nan nan nan nan nan nan nan nan nan nan nan nan nan nan nan nan nan nan nan nan nan nan nan nan nan nan nan nan
nan nan nan nan nan nan 62 34 nan 19 nan nan nan nan nan nan nan nan nan nan nan nan nan nan nan nan nan nan nan nan nan nan nan nan nan nan nan nan nan nan nan nan nan nan nan nan nan nan nan nan nan nan nan nan
74 nan nan nan nan nan nan nan nan 45 39 nan nan nan nan nan nan nan nan nan nan nan nan nan nan nan nan nan nan nan nan nan nan nan nan nan nan nan nan nan nan nan nan nan nan nan nan nan nan nan nan nan nan nan
nan nan nan nan nan nan nan nan 45 nan nan nan nan nan nan nan nan nan nan nan nan nan nan nan nan nan nan nan nan nan nan nan nan nan nan nan nan nan nan nan nan nan nan nan nan nan nan nan nan nan nan nan nan nan
nan nan nan nan nan 39 nan nan nan nan nan nan nan nan nan nan nan nan nan nan nan nan nan nan nan nan nan nan nan nan nan nan nan nan nan nan nan nan nan nan nan nan nan nan nan nan nan nan nan nan nan nan nan nan
nan nan nan nan nan nan nan nan nan nan nan nan nan nan nan nan nan nan nan nan nan nan nan nan nan nan nan nan nan nan nan nan nan nan nan nan nan nan nan nan nan nan nan nan nan nan nan nan nan nan nan nan nan nan
31 nan nan 17 nan nan nan nan nan nan nan nan nan nan nan nan nan nan nan nan nan nan nan nan nan nan nan nan nan nan nan nan nan nan nan nan nan nan nan nan nan nan nan nan nan nan nan nan nan nan nan nan nan nan
nan nan 16 5 359 nan nan nan nan nan nan nan nan nan nan nan nan nan nan nan nan nan nan nan nan nan nan nan nan nan nan nan nan nan nan nan nan nan nan nan nan nan nan nan nan nan nan nan nan nan nan nan nan nan
nan nan nan 345 349 nan nan 354 nan nan nan nan nan nan nan nan nan nan nan nan nan nan nan nan nan nan nan nan nan nan nan nan nan nan nan nan nan nan nan nan nan nan nan nan nan nan nan nan nan nan nan nan nan nan
nan nan nan 339 343 354 359 350 354 nan nan nan nan nan nan nan nan nan nan nan nan nan nan nan nan nan nan nan nan nan nan nan nan nan nan nan nan nan nan nan nan nan nan nan nan nan nan nan nan nan nan nan nan nan